User: anonymous   Login
Location: Unspecified
(0.0000°N, 0.0000°E)
Time: 12:50:54
(UTC+00:00)
Language:

NOAA 18 - Orbit

View from above orbital plane
View from above orbital plane
View from above satellite
View from above satellite

Ground track
Ground track

The orbit data is extracted from the following two-line orbital elements,

1 28654U 05018A   24206.16487827  .00000462  00000-0  27021-3 0  9993
2 28654  98.8737 282.8223 0013392 321.7368  38.2853 14.13261625988481
Epoch (UTC): 24 July 2024 03:57:25
Eccentricity: 0.0013392
inclination: 98.8737°
perigee height: 838 km
apogee height: 858 km
right ascension of ascending node: 282.8223°
argument of perigee: 321.7368°
revolutions per day: 14.13261625
mean anomaly at epoch: 38.2853°
orbit number at epoch: 98848

The dashed part of the orbit path shows where the satellite is in the earth's shadow,  

DLR